This is the latest recevied weather packets stored in our database for station/object KF7ROW. If no packets are shown the sender has not sent any weather packets the latest 10 day(s).
| Time | Temp. | Humidity | Pressure | Rain* | Wind** | Luminosity | Snow |
|---|---|---|---|---|---|---|---|
| 1777999627 | 13.89° C | 84% | 1020.5 hPa | 0 mm | - | 106 W/m² | - |
| 1777999325 | 13.89° C | 84% | 1020.5 hPa | 0 mm | - | 106 W/m² | - |
| 1777999023 | 13.89° C | 85% | 1020.4 hPa | 0 mm | - | 106 W/m² | - |
| 1777998721 | 13.33° C | 86% | 1020.4 hPa | 0 mm | - | 97 W/m² | - |
| 1777998418 | 13.33° C | 88% | 1020.4 hPa | 0 mm | - | 93 W/m² | - |
| 1777998115 | 13.33° C | 88% | 1020.3 hPa | 0 mm | - | 89 W/m² | - |
| 1777997812 | 13.33° C | 89% | 1020.3 hPa | 0 mm | - | 88 W/m² | - |
| 1777997509 | 13.33° C | 89% | 1020.5 hPa | 0 mm | - | 84 W/m² | - |
| 1777997207 | 13.33° C | 89% | 1020.4 hPa | 0 mm | - | 87 W/m² | - |
| 1777996904 | 13.33° C | 89% | 1020.3 hPa | 0 mm | - | 84 W/m² | - |
| 1777996601 | 13.33° C | 89% | 1020.3 hPa | 0 mm | - | 84 W/m² | - |
| 1777996297 | 13.33° C | 89% | 1020.4 hPa | 0 mm | - | 86 W/m² | - |
| 1777995993 | 13.33° C | 90% | 1020.5 hPa | 0 mm | - | 81 W/m² | - |
| 1777995689 | 13.33° C | 90% | 1020.2 hPa | 0 mm | - | 73 W/m² | - |
| 1777995387 | 12.78° C | 91% | 1020.3 hPa | 0 mm | - | 71 W/m² | - |
| 1777995084 | 12.78° C | 91% | 1020.3 hPa | 0 mm | - | 67 W/m² | - |
| 1777994780 | 12.78° C | 92% | 1020.4 hPa | 0 mm | - | 63 W/m² | - |
| 1777994476 | 12.78° C | 92% | 1020.4 hPa | 0 mm | - | 60 W/m² | - |
| 1777994172 | 12.78° C | 92% | 1020.4 hPa | 0 mm | - | 56 W/m² | - |
| 1777993870 | 12.78° C | 93% | 1020.4 hPa | 0 mm | - | 53 W/m² | - |
| 1777993565 | 12.78° C | 93% | 1020.4 hPa | 0 mm | - | 51 W/m² | - |
| 1777993262 | 12.78° C | 94% | 1020.5 hPa | 0 mm | - | 47 W/m² | - |
| 1777992958 | 12.22° C | 94% | 1020.4 hPa | 0 mm | - | 42 W/m² | - |
| 1777992656 | 12.22° C | 94% | 1020.3 hPa | 0 mm | - | 40 W/m² | - |
| 1777992354 | 12.22° C | 94% | 1020.4 hPa | 0 mm | - | 38 W/m² | - |
* Rain latest hour (hover to see other rain measurements)
** Current wind speed in m/s (hover to see current wind gust speed)